カタログに戻る

STARLINK-31217

運用中通信VLEO
NORAD 59036·PAYLOAD·🇺🇸 United States

打ち上げ Feb 25, 2024 から Cape Canaveral Space Force Station

Loading…

次のパス (今後24時間)

TLE

最新Source: CelesTrak SupGP

元期: Sep 15, 2026, 02:37 UTC

1 59036C 24038P   26258.10951389  .00025309  00000+0  91677-3 0  2588
2 59036  43.0000 299.4745 0001433 262.9081 314.9934 15.27562647    10

AllMySatでSTARLINK-31217をリアルタイム追跡

Download on the App Store